Location: Howard City Library
(37.4684°N, 96.2639°W)
Time: 02:38:13
(UTC+00:00)

Meteor 2-3 Rocket - Pass Details

Date: 18 February 2020
Orbit: 842 x 885 km, 81.3° (Epoch: 03 April)

Event Time Altitude Azimuth Distance (km) Brightness Sun altitude
Rises 11:41:34 0° 346° (NNW) 3,466 6.7 -18.4°
Reaches altitude 10° 11:44:02 10° 342° (NNW) 2,530 6.0 -18.0°
Maximum altitude 11:49:38 55° 266° (W) 1,046 3.8 -16.8°
Drops below altitude 10° 11:55:15 10° 190° (S) 2,534 6.1 -15.7°
Sets 11:57:44 0° 186° (S) 3,471 6.9 -15.2°
